Year,Month,Day,Hour,Minute,Value (Times are PST for temperature in C)
2024,01,13,00,00,-7.90
2024,01,13,00,01,-7.90
2024,01,13,00,02,-7.90
2024,01,13,00,03,-7.80
2024,01,13,00,04,-7.80
2024,01,13,00,05,-7.80
2024,01,13,00,06,-7.80
2024,01,13,00,07,-7.80
2024,01,13,00,08,-7.80
2024,01,13,00,09,-7.80
2024,01,13,00,10,-7.80
2024,01,13,00,11,-7.80
2024,01,13,00,12,-7.80
2024,01,13,00,13,-7.70
2024,01,13,00,14,-7.70
2024,01,13,00,15,-7.70
2024,01,13,00,16,-7.70
2024,01,13,00,17,-7.70
2024,01,13,00,18,-7.70
2024,01,13,00,19,-7.70
2024,01,13,00,20,-7.70
2024,01,13,00,21,-7.70
2024,01,13,00,22,-7.70
2024,01,13,00,23,-7.70
2024,01,13,00,24,-7.70
2024,01,13,00,25,-7.70
2024,01,13,00,26,-7.70
2024,01,13,00,27,-7.70
2024,01,13,00,28,-7.70
2024,01,13,00,29,-7.70
2024,01,13,00,30,-7.70
2024,01,13,00,31,-7.70
2024,01,13,00,32,-7.70
2024,01,13,00,33,-7.70
2024,01,13,00,34,-7.70
2024,01,13,00,35,-7.70
2024,01,13,00,36,-7.70
2024,01,13,00,37,-7.70
2024,01,13,00,38,-7.70
2024,01,13,00,39,-7.70
2024,01,13,00,40,-7.70
2024,01,13,00,41,-7.70
2024,01,13,00,42,-7.70
2024,01,13,00,43,-7.70
2024,01,13,00,44,-7.70
2024,01,13,00,45,-7.70
2024,01,13,00,46,-7.70
2024,01,13,00,47,-7.70
2024,01,13,00,48,-7.70
2024,01,13,00,49,-7.70
2024,01,13,00,50,-7.70
2024,01,13,00,51,-7.70
2024,01,13,00,52,-7.70
2024,01,13,00,53,-7.70
2024,01,13,00,54,-7.70
2024,01,13,00,55,-7.70
2024,01,13,00,56,-7.70
2024,01,13,00,57,-7.70
2024,01,13,00,58,-7.70
2024,01,13,00,59,-7.70
2024,01,13,01,00,-7.70
2024,01,13,01,01,-7.70
2024,01,13,01,02,-7.70
2024,01,13,01,03,-7.70
2024,01,13,01,04,-7.70
2024,01,13,01,05,-7.70
2024,01,13,01,06,-7.70
2024,01,13,01,07,-7.70
2024,01,13,01,08,-7.70
2024,01,13,01,09,-7.70
2024,01,13,01,10,-7.70
2024,01,13,01,11,-7.70
2024,01,13,01,12,-7.70
2024,01,13,01,13,-7.70
2024,01,13,01,14,-7.70
2024,01,13,01,15,-7.70
2024,01,13,01,16,-7.70
2024,01,13,01,17,-7.70
2024,01,13,01,18,-7.70
2024,01,13,01,19,-7.70
2024,01,13,01,20,-7.70
2024,01,13,01,21,-7.70
2024,01,13,01,22,-7.70
2024,01,13,01,23,-7.70
2024,01,13,01,24,-7.70
2024,01,13,01,25,-7.70
2024,01,13,01,26,-7.70
2024,01,13,01,27,-7.70
2024,01,13,01,28,-7.70
2024,01,13,01,29,-7.70
2024,01,13,01,30,-7.70
2024,01,13,01,31,-7.70
2024,01,13,01,32,-7.70
2024,01,13,01,33,-7.70
2024,01,13,01,34,-7.70
2024,01,13,01,35,-7.70
2024,01,13,01,36,-7.70
2024,01,13,01,37,-7.70
2024,01,13,01,38,-7.70
2024,01,13,01,39,-7.70
2024,01,13,01,40,-7.70
2024,01,13,01,41,-7.70
2024,01,13,01,42,-7.70
2024,01,13,01,43,-7.70
2024,01,13,01,44,-7.70
2024,01,13,01,45,-7.70
2024,01,13,01,46,-7.70
2024,01,13,01,47,-7.70
2024,01,13,01,48,-7.70
2024,01,13,01,49,-7.70
2024,01,13,01,50,-7.70
2024,01,13,01,51,-7.70
2024,01,13,01,52,-7.70
2024,01,13,01,53,-7.70
2024,01,13,01,54,-7.70
2024,01,13,01,55,-7.70
2024,01,13,01,56,-7.60
2024,01,13,01,57,-7.60
2024,01,13,01,58,-7.60
2024,01,13,01,59,-7.60
2024,01,13,02,00,-7.60
2024,01,13,02,01,-7.60
2024,01,13,02,02,-7.60
2024,01,13,02,03,-7.60
2024,01,13,02,04,-7.60
2024,01,13,02,05,-7.60
2024,01,13,02,06,-7.60
2024,01,13,02,07,-7.60
2024,01,13,02,08,-7.60
2024,01,13,02,09,-7.60
2024,01,13,02,10,-7.60
2024,01,13,02,11,-7.60
2024,01,13,02,12,-7.50
2024,01,13,02,13,-7.50
2024,01,13,02,14,-7.50
2024,01,13,02,15,-7.50
2024,01,13,02,16,-7.50
2024,01,13,02,17,-7.50
2024,01,13,02,18,-7.50
2024,01,13,02,19,-7.50
2024,01,13,02,20,-7.50
2024,01,13,02,21,-7.50
2024,01,13,02,22,-7.50
2024,01,13,02,23,-7.50
2024,01,13,02,24,-7.50
2024,01,13,02,25,-7.50
2024,01,13,02,26,-7.50
2024,01,13,02,27,-7.50
2024,01,13,02,28,-7.50
2024,01,13,02,29,-7.50
2024,01,13,02,30,-7.50
2024,01,13,02,31,-7.50
2024,01,13,02,32,-7.50
2024,01,13,02,33,-7.50
2024,01,13,02,34,-7.50
2024,01,13,02,35,-7.50
2024,01,13,02,36,-7.50
2024,01,13,02,37,-7.50
2024,01,13,02,38,-7.40
2024,01,13,02,39,-7.50
2024,01,13,02,40,-7.40
2024,01,13,02,41,-7.40
2024,01,13,02,42,-7.40
2024,01,13,02,43,-7.40
2024,01,13,02,44,-7.40
2024,01,13,02,45,-7.40
2024,01,13,02,46,-7.40
2024,01,13,02,47,-7.40
2024,01,13,02,48,-7.40
2024,01,13,02,49,-7.40
2024,01,13,02,50,-7.40
2024,01,13,02,51,-7.30
2024,01,13,02,52,-7.30
2024,01,13,02,53,-7.30
2024,01,13,02,54,-7.30
2024,01,13,02,55,-7.30
2024,01,13,02,56,-7.30
2024,01,13,02,57,-7.30
2024,01,13,02,58,-7.30
2024,01,13,02,59,-7.30
2024,01,13,03,00,-7.30
2024,01,13,03,01,-7.30
2024,01,13,03,02,-7.30
2024,01,13,03,03,-7.30
2024,01,13,03,04,-7.30
2024,01,13,03,05,-7.30
2024,01,13,03,06,-7.30
2024,01,13,03,07,-7.30
2024,01,13,03,08,-7.30
2024,01,13,03,09,-7.30
2024,01,13,03,10,-7.30
2024,01,13,03,11,-7.30
2024,01,13,03,12,-7.30
2024,01,13,03,13,-7.30
2024,01,13,03,14,-7.30
2024,01,13,03,15,-7.30
2024,01,13,03,16,-7.30
2024,01,13,03,17,-7.30
2024,01,13,03,18,-7.30
2024,01,13,03,19,-7.30
2024,01,13,03,20,-7.30
2024,01,13,03,21,-7.30
2024,01,13,03,22,-7.30
2024,01,13,03,23,-7.30
2024,01,13,03,24,-7.40
2024,01,13,03,25,-7.40
2024,01,13,03,26,-7.40
2024,01,13,03,27,-7.40
2024,01,13,03,28,-7.40
2024,01,13,03,29,-7.40
2024,01,13,03,30,-7.40
2024,01,13,03,31,-7.40
2024,01,13,03,32,-7.40
2024,01,13,03,33,-7.40
2024,01,13,03,34,-7.40
2024,01,13,03,35,-7.40
2024,01,13,03,36,-7.30
2024,01,13,03,37,-7.40
2024,01,13,03,38,-7.40
2024,01,13,03,39,-7.40
2024,01,13,03,40,-7.40
2024,01,13,03,41,-7.30
2024,01,13,03,42,-7.30
2024,01,13,03,43,-7.30
2024,01,13,03,44,-7.30
2024,01,13,03,45,-7.30
2024,01,13,03,46,-7.30
2024,01,13,03,47,-7.30
2024,01,13,03,48,-7.30
2024,01,13,03,49,-7.30
2024,01,13,03,50,-7.30
2024,01,13,03,51,-7.30
2024,01,13,03,52,-7.30
2024,01,13,03,53,-7.30
2024,01,13,03,54,-7.30
2024,01,13,03,55,-7.30
2024,01,13,03,56,-7.30
2024,01,13,03,57,-7.30
2024,01,13,03,58,-7.30
2024,01,13,03,59,-7.30
2024,01,13,04,00,-7.30
2024,01,13,04,01,-7.20
2024,01,13,04,02,-7.20
2024,01,13,04,03,-7.20
2024,01,13,04,04,-7.20
2024,01,13,04,05,-7.20
2024,01,13,04,06,-7.20
2024,01,13,04,07,-7.20
2024,01,13,04,08,-7.20
2024,01,13,04,09,-7.20
2024,01,13,04,10,-7.20
2024,01,13,04,11,-7.20
2024,01,13,04,12,-7.20
2024,01,13,04,13,-7.20
2024,01,13,04,14,-7.20
2024,01,13,04,15,-7.30
2024,01,13,04,16,-7.30
2024,01,13,04,17,-7.30
2024,01,13,04,18,-7.20
2024,01,13,04,19,-7.20
2024,01,13,04,20,-7.20
2024,01,13,04,21,-7.20
2024,01,13,04,22,-7.20
2024,01,13,04,23,-7.20
2024,01,13,04,24,-7.20
2024,01,13,04,25,-7.30
2024,01,13,04,26,-7.30
2024,01,13,04,27,-7.30
2024,01,13,04,28,-7.30
2024,01,13,04,29,-7.20
2024,01,13,04,30,-7.20
2024,01,13,04,31,-7.20
2024,01,13,04,32,-7.20
2024,01,13,04,33,-7.20
2024,01,13,04,34,-7.20
2024,01,13,04,35,-7.20
2024,01,13,04,36,-7.20
2024,01,13,04,37,-7.20
2024,01,13,04,38,-7.20
2024,01,13,04,39,-7.20
2024,01,13,04,40,-7.20
2024,01,13,04,41,-7.20
2024,01,13,04,42,-7.20
2024,01,13,04,43,-7.20
2024,01,13,04,44,-7.20
2024,01,13,04,45,-7.20
2024,01,13,04,46,-7.20
2024,01,13,04,47,-7.20
2024,01,13,04,48,-7.20
2024,01,13,04,49,-7.20
2024,01,13,04,50,-7.10
2024,01,13,04,51,-7.10
2024,01,13,04,52,-7.10
2024,01,13,04,53,-7.10
2024,01,13,04,54,-7.10
2024,01,13,04,55,-7.10
2024,01,13,04,56,-7.10
2024,01,13,04,57,-7.10
2024,01,13,04,58,-7.20
2024,01,13,04,59,-7.20
2024,01,13,05,00,-7.10
2024,01,13,05,01,-7.10
2024,01,13,05,02,-7.10
2024,01,13,05,03,-7.10
2024,01,13,05,04,-7.10
2024,01,13,05,05,-7.10
2024,01,13,05,06,-7.10
2024,01,13,05,07,-7.10
2024,01,13,05,08,-7.00
2024,01,13,05,09,-7.00
2024,01,13,05,10,-7.00
2024,01,13,05,11,-7.00
2024,01,13,05,12,-7.00
2024,01,13,05,13,-7.00
2024,01,13,05,14,-7.00
2024,01,13,05,15,-7.00
2024,01,13,05,16,-7.10
2024,01,13,05,17,-7.10
2024,01,13,05,18,-7.10
2024,01,13,05,19,-7.10
2024,01,13,05,20,-7.10
2024,01,13,05,21,-7.10
2024,01,13,05,22,-7.10
2024,01,13,05,23,-7.10
2024,01,13,05,24,-7.10
2024,01,13,05,25,-7.10
2024,01,13,05,26,-7.10
2024,01,13,05,27,-7.10
2024,01,13,05,28,-7.10
2024,01,13,05,29,-7.10
2024,01,13,09,44,-6.50
2024,01,13,09,45,-6.50
2024,01,13,09,46,-6.50
2024,01,13,09,47,-6.40
2024,01,13,09,48,-6.40
2024,01,13,09,49,-6.40
2024,01,13,09,50,-6.30
2024,01,13,09,51,-6.30
2024,01,13,09,52,-6.30
2024,01,13,09,53,-6.30
2024,01,13,09,54,-6.30
2024,01,13,09,55,-6.20
2024,01,13,09,56,-6.20
2024,01,13,09,57,-6.20
2024,01,13,09,58,-6.10
2024,01,13,09,59,-6.10
2024,01,13,10,00,-6.00
2024,01,13,10,01,-5.90
2024,01,13,10,02,-5.80
2024,01,13,10,03,-5.80
2024,01,13,10,04,-5.80
2024,01,13,10,05,-5.70
2024,01,13,10,06,-5.70
2024,01,13,10,07,-5.70
2024,01,13,10,08,-5.60
2024,01,13,10,09,-5.60
2024,01,13,10,10,-5.50
2024,01,13,10,11,-5.50
2024,01,13,10,12,-5.50
2024,01,13,10,13,-5.40
2024,01,13,10,14,-5.40
2024,01,13,10,15,-5.50
2024,01,13,10,16,-5.60
2024,01,13,10,17,-5.60
2024,01,13,10,18,-5.70
2024,01,13,10,19,-5.80
2024,01,13,10,20,-5.80
2024,01,13,10,21,-5.80
2024,01,13,10,22,-5.80
2024,01,13,10,23,-5.80
2024,01,13,10,24,-5.80
2024,01,13,10,25,-5.80
2024,01,13,10,26,-5.80
2024,01,13,10,27,-5.90
2024,01,13,10,28,-5.80
2024,01,13,10,29,-5.80
2024,01,13,10,30,-5.80
2024,01,13,10,31,-5.80
2024,01,13,10,32,-5.80
2024,01,13,10,33,-5.80
2024,01,13,10,34,-5.80
2024,01,13,10,35,-5.80
2024,01,13,10,36,-5.80
2024,01,13,10,37,-5.80
2024,01,13,10,38,-5.80
2024,01,13,10,39,-5.80
2024,01,13,10,40,-5.80
2024,01,13,10,41,-5.70
2024,01,13,10,42,-5.70
2024,01,13,10,43,-5.70
2024,01,13,10,44,-5.70
2024,01,13,10,45,-5.70
2024,01,13,10,46,-5.70
2024,01,13,10,47,-5.60
2024,01,13,10,48,-5.60
2024,01,13,10,49,-5.60
2024,01,13,10,50,-5.60
2024,01,13,10,51,-5.60
2024,01,13,10,52,-5.70
2024,01,13,10,53,-5.70
2024,01,13,10,54,-5.70
2024,01,13,10,55,-5.70
2024,01,13,10,56,-5.60
2024,01,13,10,57,-5.60
2024,01,13,10,58,-5.50
2024,01,13,10,59,-5.50
2024,01,13,11,00,-5.50
2024,01,13,11,01,-5.50
2024,01,13,11,02,-5.40
2024,01,13,11,03,-5.40
2024,01,13,11,04,-5.30
2024,01,13,11,05,-5.30
2024,01,13,11,06,-5.30
2024,01,13,11,07,-5.20
2024,01,13,11,08,-5.20
2024,01,13,11,09,-5.20
2024,01,13,11,10,-5.20
2024,01,13,11,11,-5.30
2024,01,13,11,12,-5.30
2024,01,13,11,13,-5.30
2024,01,13,11,14,-5.30
2024,01,13,11,15,-5.40
2024,01,13,11,16,-5.50
2024,01,13,11,17,-5.50
2024,01,13,11,18,-5.60
2024,01,13,11,19,-5.60
2024,01,13,11,20,-5.60
2024,01,13,11,21,-5.60
2024,01,13,11,22,-5.60
2024,01,13,11,23,-5.60
2024,01,13,11,24,-5.60
2024,01,13,11,25,-5.70
2024,01,13,11,26,-5.70
2024,01,13,11,27,-5.70
2024,01,13,11,28,-5.70
2024,01,13,11,29,-5.70
2024,01,13,11,30,-5.70
2024,01,13,11,31,-5.70
2024,01,13,11,32,-5.70
2024,01,13,11,33,-5.70
2024,01,13,11,34,-5.70
2024,01,13,11,35,-5.70
2024,01,13,11,36,-5.70
2024,01,13,11,37,-5.70
2024,01,13,11,38,-5.70
2024,01,13,11,39,-5.70
2024,01,13,11,40,-5.70
2024,01,13,11,41,-5.70
2024,01,13,11,42,-5.70
2024,01,13,11,43,-5.70
2024,01,13,11,44,-5.70
2024,01,13,11,45,-5.60
2024,01,13,11,46,-5.60
2024,01,13,11,47,-5.60
2024,01,13,11,48,-5.60
2024,01,13,11,49,-5.60
2024,01,13,11,50,-5.60
2024,01,13,11,51,-5.50
2024,01,13,11,52,-5.50
2024,01,13,11,53,-5.40
2024,01,13,11,54,-5.30
2024,01,13,11,55,-5.30
2024,01,13,11,56,-5.20
2024,01,13,11,57,-5.20
2024,01,13,11,58,-5.10
2024,01,13,11,59,-5.00
2024,01,13,12,00,-5.00
2024,01,13,12,01,-4.90
2024,01,13,12,02,-4.90
2024,01,13,12,03,-4.90
2024,01,13,12,04,-4.90
2024,01,13,12,05,-4.90
2024,01,13,12,06,-4.90
2024,01,13,12,07,-4.90
2024,01,13,12,08,-5.00
2024,01,13,12,09,-5.00
2024,01,13,12,10,-5.10
2024,01,13,12,11,-5.10
2024,01,13,12,12,-5.10
2024,01,13,12,13,-5.10
2024,01,13,12,14,-5.10
2024,01,13,12,15,-5.10
2024,01,13,12,16,-5.10
2024,01,13,12,17,-5.00
2024,01,13,12,18,-5.00
2024,01,13,12,19,-5.10
2024,01,13,12,20,-5.10
2024,01,13,12,21,-5.20
2024,01,13,12,22,-5.20
2024,01,13,12,23,-5.20
2024,01,13,12,24,-5.20
2024,01,13,12,25,-5.20
2024,01,13,12,26,-5.20
2024,01,13,12,27,-5.20
2024,01,13,12,28,-5.20
2024,01,13,12,29,-5.10
2024,01,13,12,30,-5.10
2024,01,13,12,31,-5.10
2024,01,13,12,32,-5.00
2024,01,13,12,33,-5.00
2024,01,13,12,34,-5.00
2024,01,13,12,35,-5.00
2024,01,13,12,36,-5.00
2024,01,13,12,37,-5.00
2024,01,13,12,38,-5.00
2024,01,13,12,39,-5.00
2024,01,13,12,40,-5.00
2024,01,13,12,41,-4.90
2024,01,13,12,42,-4.90
2024,01,13,12,43,-4.90
2024,01,13,12,44,-4.80
2024,01,13,12,45,-4.70
2024,01,13,12,46,-4.70
2024,01,13,12,47,-4.70
2024,01,13,12,48,-4.60
2024,01,13,12,49,-4.60
2024,01,13,12,50,-4.60
2024,01,13,12,51,-4.60
2024,01,13,12,52,-4.60
2024,01,13,12,53,-4.60
2024,01,13,12,54,-4.60
2024,01,13,12,55,-4.60
2024,01,13,12,56,-4.60
2024,01,13,12,57,-4.60
2024,01,13,12,58,-4.50
2024,01,13,12,59,-4.50
2024,01,13,13,00,-4.40
2024,01,13,13,01,-4.40
2024,01,13,13,02,-4.40
2024,01,13,13,03,-4.40
2024,01,13,13,04,-4.40
2024,01,13,13,05,-4.40
2024,01,13,13,06,-4.40
2024,01,13,13,07,-4.50
2024,01,13,13,08,-4.50
2024,01,13,13,09,-4.60
2024,01,13,13,10,-4.60
2024,01,13,13,11,-4.70
2024,01,13,13,12,-4.70
2024,01,13,13,13,-4.60
2024,01,13,13,14,-4.60
2024,01,13,13,15,-4.60
2024,01,13,13,16,-4.60
2024,01,13,13,17,-4.60
2024,01,13,13,18,-4.60
2024,01,13,13,19,-4.70
2024,01,13,13,20,-4.70
2024,01,13,13,21,-4.70
2024,01,13,13,22,-4.70
2024,01,13,13,23,-4.70
2024,01,13,13,24,-4.70
2024,01,13,13,25,-4.70
2024,01,13,13,26,-4.70
2024,01,13,13,27,-4.70
2024,01,13,13,28,-4.70
2024,01,13,13,29,-4.70
2024,01,13,13,30,-4.70
2024,01,13,13,31,-4.70
2024,01,13,13,32,-4.70
2024,01,13,13,33,-4.60
2024,01,13,13,34,-4.60
2024,01,13,13,35,-4.50
2024,01,13,13,36,-4.50
2024,01,13,13,37,-4.50
2024,01,13,13,38,-4.40
2024,01,13,13,39,-4.40
2024,01,13,13,40,-4.40
2024,01,13,13,41,-4.40
2024,01,13,13,42,-4.40
2024,01,13,13,43,-4.40
2024,01,13,13,44,-4.30
2024,01,13,13,45,-4.30
2024,01,13,13,46,-4.30
2024,01,13,13,47,-4.20
2024,01,13,13,48,-4.20
2024,01,13,13,49,-4.20
2024,01,13,13,50,-4.30
2024,01,13,13,51,-4.30
2024,01,13,13,52,-4.20
2024,01,13,13,53,-4.20
2024,01,13,13,54,-4.10
2024,01,13,13,55,-4.10
2024,01,13,13,56,-4.00
2024,01,13,13,57,-4.00
2024,01,13,13,58,-3.90
2024,01,13,13,59,-3.90
2024,01,13,14,00,-3.90
2024,01,13,14,01,-4.00
2024,01,13,14,02,-3.90
2024,01,13,14,03,-3.90
2024,01,13,14,04,-3.90
2024,01,13,14,05,-4.00
2024,01,13,14,06,-3.90
2024,01,13,14,07,-3.90
2024,01,13,14,08,-3.90
2024,01,13,14,09,-3.90
2024,01,13,14,10,-3.90
2024,01,13,14,11,-3.80
2024,01,13,14,12,-3.80
2024,01,13,14,13,-3.80
2024,01,13,14,14,-3.80
2024,01,13,14,15,-3.80
2024,01,13,14,16,-3.80
2024,01,13,14,17,-3.90
2024,01,13,14,18,-3.90
2024,01,13,14,19,-3.90
2024,01,13,14,20,-3.90
2024,01,13,14,21,-3.90
2024,01,13,14,22,-3.90
2024,01,13,14,23,-3.90
2024,01,13,14,24,-3.90
2024,01,13,14,25,-3.90
2024,01,13,14,26,-3.90
2024,01,13,14,27,-3.90
2024,01,13,14,28,-3.90
2024,01,13,14,29,-3.90
2024,01,13,14,30,-3.90
2024,01,13,14,31,-3.90
2024,01,13,14,32,-3.90
2024,01,13,14,33,-3.90
2024,01,13,14,34,-3.90
2024,01,13,14,35,-3.90
2024,01,13,14,36,-3.80
2024,01,13,14,37,-3.80
2024,01,13,14,38,-3.80
2024,01,13,14,39,-3.80
2024,01,13,14,40,-3.70
2024,01,13,14,41,-3.60
2024,01,13,14,42,-3.60
2024,01,13,14,43,-3.60
2024,01,13,14,44,-3.60
2024,01,13,14,45,-3.60
2024,01,13,14,46,-3.60
2024,01,13,14,47,-3.50
2024,01,13,14,48,-3.50
2024,01,13,14,49,-3.40
2024,01,13,14,50,-3.40
2024,01,13,14,51,-3.40
2024,01,13,14,52,-3.40
2024,01,13,14,53,-3.30
2024,01,13,14,54,-3.30
2024,01,13,14,55,-3.40
2024,01,13,14,56,-3.40
2024,01,13,14,57,-3.40
2024,01,13,14,58,-3.30
2024,01,13,14,59,-3.30
2024,01,13,15,00,-3.30
2024,01,13,15,01,-3.30
2024,01,13,15,02,-3.30
2024,01,13,15,03,-3.30
2024,01,13,15,04,-3.40
2024,01,13,15,05,-3.40
2024,01,13,15,06,-3.40
2024,01,13,15,07,-3.30
2024,01,13,15,08,-3.30
2024,01,13,15,09,-3.30
2024,01,13,15,10,-3.40
2024,01,13,15,11,-3.50
2024,01,13,15,12,-3.50
2024,01,13,15,13,-3.60
2024,01,13,15,14,-3.60
2024,01,13,15,15,-3.60
2024,01,13,15,16,-3.60
2024,01,13,15,17,-3.60
2024,01,13,15,18,-3.60
2024,01,13,15,19,-3.60
2024,01,13,15,20,-3.50
2024,01,13,15,21,-3.50
2024,01,13,15,22,-3.50
2024,01,13,15,23,-3.50
2024,01,13,15,24,-3.50
2024,01,13,15,25,-3.50
2024,01,13,15,26,-3.50
2024,01,13,15,27,-3.50
2024,01,13,15,28,-3.60
2024,01,13,15,29,-3.60
2024,01,13,15,30,-3.60
2024,01,13,15,31,-3.70
2024,01,13,15,32,-3.70
2024,01,13,15,33,-3.70
2024,01,13,15,34,-3.70
2024,01,13,15,35,-3.70
2024,01,13,15,36,-3.70
2024,01,13,15,37,-3.70
2024,01,13,15,38,-3.80
2024,01,13,15,39,-3.80
2024,01,13,15,40,-3.80
2024,01,13,15,41,-3.80
2024,01,13,15,42,-3.70
2024,01,13,15,43,-3.70
2024,01,13,15,44,-3.70
2024,01,13,15,45,-3.70
2024,01,13,15,46,-3.70
2024,01,13,15,47,-3.70
2024,01,13,15,48,-3.70
2024,01,13,15,49,-3.70
2024,01,13,15,50,-3.70
2024,01,13,15,51,-3.70
2024,01,13,15,52,-3.70
2024,01,13,15,53,-3.70
2024,01,13,15,54,-3.70
2024,01,13,15,55,-3.70
2024,01,13,15,56,-3.70
2024,01,13,15,57,-3.70
2024,01,13,15,58,-3.70
2024,01,13,15,59,-3.70
2024,01,13,16,00,-3.70
2024,01,13,16,01,-3.70
2024,01,13,16,02,-3.70
2024,01,13,16,03,-3.70
2024,01,13,16,04,-3.70
2024,01,13,16,05,-3.70
2024,01,13,16,06,-3.60
2024,01,13,16,07,-3.70
2024,01,13,16,08,-3.70
2024,01,13,16,09,-3.70
2024,01,13,16,10,-3.70
2024,01,13,16,11,-3.60
2024,01,13,16,12,-3.70
2024,01,13,16,13,-3.70
2024,01,13,16,14,-3.70
2024,01,13,16,15,-3.70
2024,01,13,16,16,-3.70
2024,01,13,16,17,-3.70
2024,01,13,16,18,-3.70
2024,01,13,16,19,-3.70
2024,01,13,16,20,-3.70
2024,01,13,16,21,-3.70
2024,01,13,16,22,-3.70
2024,01,13,16,23,-3.70
2024,01,13,16,24,-3.70
2024,01,13,16,25,-3.70
2024,01,13,16,26,-3.70
2024,01,13,16,27,-3.70
2024,01,13,16,28,-3.70
2024,01,13,16,29,-3.70
2024,01,13,16,30,-3.70
2024,01,13,16,31,-3.70
2024,01,13,16,32,-3.70
2024,01,13,16,33,-3.70
2024,01,13,16,34,-3.70
2024,01,13,16,35,-3.70
2024,01,13,16,36,-3.70
2024,01,13,16,37,-3.70
2024,01,13,16,38,-3.70
2024,01,13,16,39,-3.70
2024,01,13,16,40,-3.70
2024,01,13,16,41,-3.70
2024,01,13,16,42,-3.70
2024,01,13,16,43,-3.70
2024,01,13,16,44,-3.70
2024,01,13,16,45,-3.70
2024,01,13,16,46,-3.70
2024,01,13,16,47,-3.70
2024,01,13,16,48,-3.70
2024,01,13,16,49,-3.80
2024,01,13,16,50,-3.70
2024,01,13,16,51,-3.80
2024,01,13,16,52,-3.80
2024,01,13,16,53,-3.80
2024,01,13,16,54,-3.80
2024,01,13,16,55,-3.80
2024,01,13,16,56,-3.80
2024,01,13,16,57,-3.80
2024,01,13,16,58,-3.80
2024,01,13,16,59,-3.80
2024,01,13,17,00,-3.80
2024,01,13,17,01,-3.80
2024,01,13,17,02,-3.80
2024,01,13,17,03,-3.80
2024,01,13,17,04,-3.80
2024,01,13,17,05,-3.80
2024,01,13,17,06,-3.80
2024,01,13,17,07,-3.80
2024,01,13,17,08,-3.80
2024,01,13,17,09,-3.70
2024,01,13,17,10,-3.70
2024,01,13,17,11,-3.70
2024,01,13,17,12,-3.70
2024,01,13,17,13,-3.70
2024,01,13,17,14,-3.70
2024,01,13,17,15,-3.70
2024,01,13,17,16,-3.70
2024,01,13,17,17,-3.70
2024,01,13,17,18,-3.70
2024,01,13,17,19,-3.70
2024,01,13,17,20,-3.60
2024,01,13,17,21,-3.60
2024,01,13,17,22,-3.60
2024,01,13,17,23,-3.60
2024,01,13,17,24,-3.60
2024,01,13,17,25,-3.60
2024,01,13,17,26,-3.60
2024,01,13,17,27,-3.60
2024,01,13,17,28,-3.60
2024,01,13,17,29,-3.60
2024,01,13,17,30,-3.60
2024,01,13,17,31,-3.60
2024,01,13,17,32,-3.50
2024,01,13,17,33,-3.50
2024,01,13,17,34,-3.50
2024,01,13,17,35,-3.50
2024,01,13,17,36,-3.50
2024,01,13,17,37,-3.50
2024,01,13,17,38,-3.50
2024,01,13,17,39,-3.50
2024,01,13,17,40,-3.50
2024,01,13,17,41,-3.50
2024,01,13,17,42,-3.50
2024,01,13,17,43,-3.40
2024,01,13,17,44,-3.40
2024,01,13,17,45,-3.40
2024,01,13,17,46,-3.40
2024,01,13,17,47,-3.40
2024,01,13,17,48,-3.40
2024,01,13,17,49,-3.30
2024,01,13,17,50,-3.30
2024,01,13,17,51,-3.30
2024,01,13,17,52,-3.30
2024,01,13,17,53,-3.30
2024,01,13,17,54,-3.30
2024,01,13,17,55,-3.20
2024,01,13,17,56,-3.20
2024,01,13,17,57,-3.20
2024,01,13,17,58,-3.20
2024,01,13,17,59,-3.20
2024,01,13,18,00,-3.20
2024,01,13,18,01,-3.20
2024,01,13,18,02,-3.20
2024,01,13,18,03,-3.20
2024,01,13,18,04,-3.10
2024,01,13,18,05,-3.10
2024,01,13,18,06,-3.10
2024,01,13,18,07,-3.10
2024,01,13,18,08,-3.10
2024,01,13,18,09,-3.10
2024,01,13,18,10,-3.10
2024,01,13,18,11,-3.10
2024,01,13,18,12,-3.10
2024,01,13,18,13,-3.10
2024,01,13,18,14,-3.20
2024,01,13,18,15,-3.20
2024,01,13,18,16,-3.30
2024,01,13,18,17,-3.30
2024,01,13,18,18,-3.30
2024,01,13,18,19,-3.40
2024,01,13,18,20,-3.40
2024,01,13,18,21,-3.40
2024,01,13,18,22,-3.40
2024,01,13,18,23,-3.50
2024,01,13,18,24,-3.50
2024,01,13,18,25,-3.50
2024,01,13,18,26,-3.50
2024,01,13,18,27,-3.50
2024,01,13,18,28,-3.50
2024,01,13,18,29,-3.50
2024,01,13,18,30,-3.60
2024,01,13,18,31,-3.60
2024,01,13,18,32,-3.60
2024,01,13,18,33,-3.60
2024,01,13,18,34,-3.60
2024,01,13,18,35,-3.60
2024,01,13,18,36,-3.60
2024,01,13,18,37,-3.60
2024,01,13,18,38,-3.60
2024,01,13,18,39,-3.60
2024,01,13,18,40,-3.60
2024,01,13,18,41,-3.60
2024,01,13,18,42,-3.60
2024,01,13,18,43,-3.60
2024,01,13,18,44,-3.60
2024,01,13,18,45,-3.60
2024,01,13,18,46,-3.60
2024,01,13,18,47,-3.60
2024,01,13,18,48,-3.60
2024,01,13,18,49,-3.60
2024,01,13,18,50,-3.60
2024,01,13,18,51,-3.60
2024,01,13,18,52,-3.60
2024,01,13,18,53,-3.50
2024,01,13,18,54,-3.50
2024,01,13,18,55,-3.50
2024,01,13,18,56,-3.40
2024,01,13,18,57,-3.40
2024,01,13,18,58,-3.40
2024,01,13,18,59,-3.40
2024,01,13,19,00,-3.30
2024,01,13,19,01,-3.20
2024,01,13,19,02,-3.20
2024,01,13,19,03,-3.20
2024,01,13,19,04,-3.20
2024,01,13,19,05,-3.10
2024,01,13,19,06,-3.20
2024,01,13,19,07,-3.10
2024,01,13,19,08,-3.10
2024,01,13,19,09,-3.10
2024,01,13,19,10,-3.10
2024,01,13,19,11,-3.10
2024,01,13,19,12,-3.10
2024,01,13,19,13,-3.10
2024,01,13,19,14,-3.00
2024,01,13,19,15,-3.00
2024,01,13,19,16,-2.90
2024,01,13,19,17,-2.80
2024,01,13,19,18,-2.70
2024,01,13,19,19,-2.60
2024,01,13,19,20,-2.60
2024,01,13,19,21,-2.50
2024,01,13,19,22,-2.50
2024,01,13,19,23,-2.40
2024,01,13,19,24,-2.40
2024,01,13,19,25,-2.30
2024,01,13,19,26,-2.30
2024,01,13,19,27,-2.30
2024,01,13,19,28,-2.30
2024,01,13,19,29,-2.30
2024,01,13,19,30,-2.30
2024,01,13,19,31,-2.30
2024,01,13,19,32,-2.20
2024,01,13,19,33,-2.20
2024,01,13,19,34,-2.20
2024,01,13,19,35,-2.20
2024,01,13,19,36,-2.20
2024,01,13,19,37,-2.20
2024,01,13,19,38,-2.20
2024,01,13,19,39,-2.20
2024,01,13,19,40,-2.20
2024,01,13,19,41,-2.20
2024,01,13,19,42,-2.30
2024,01,13,19,43,-2.30
2024,01,13,19,44,-2.30
2024,01,13,19,45,-2.30
2024,01,13,19,46,-2.30
2024,01,13,19,47,-2.30
2024,01,13,19,48,-2.30
2024,01,13,19,49,-2.30
2024,01,13,19,50,-2.30
2024,01,13,19,51,-2.30
2024,01,13,19,52,-2.30
2024,01,13,19,53,-2.40
2024,01,13,19,54,-2.40
2024,01,13,19,55,-2.40
2024,01,13,19,56,-2.40
2024,01,13,19,57,-2.40
2024,01,13,19,58,-2.40
2024,01,13,19,59,-2.40
2024,01,13,20,00,-2.40
2024,01,13,20,01,-2.40
2024,01,13,20,02,-2.40
2024,01,13,20,03,-2.50
2024,01,13,20,04,-2.50
2024,01,13,20,05,-2.50
2024,01,13,20,06,-2.50
2024,01,13,20,07,-2.50
2024,01,13,20,08,-2.50
2024,01,13,20,09,-2.50
2024,01,13,20,10,-2.50
2024,01,13,20,11,-2.50
2024,01,13,20,12,-2.50
2024,01,13,20,13,-2.50
2024,01,13,20,14,-2.50
2024,01,13,20,15,-2.50
2024,01,13,20,16,-2.60
2024,01,13,20,17,-2.50
2024,01,13,20,18,-2.50
2024,01,13,20,19,-2.50
2024,01,13,20,20,-2.50
2024,01,13,20,21,-2.50
2024,01,13,20,22,-2.50
2024,01,13,20,23,-2.50
2024,01,13,20,24,-2.50
2024,01,13,20,25,-2.50
2024,01,13,20,26,-2.50
2024,01,13,20,27,-2.50
2024,01,13,20,28,-2.50
2024,01,13,20,29,-2.40
2024,01,13,20,30,-2.40
2024,01,13,20,31,-2.40
2024,01,13,20,32,-2.40
2024,01,13,20,33,-2.40
2024,01,13,20,34,-2.40
2024,01,13,20,35,-2.40
2024,01,13,20,36,-2.40
2024,01,13,20,37,-2.40
2024,01,13,20,38,-2.40
2024,01,13,20,39,-2.50
2024,01,13,20,40,-2.40
2024,01,13,20,41,-2.40
2024,01,13,20,42,-2.40
2024,01,13,20,43,-2.40
2024,01,13,20,44,-2.50
2024,01,13,20,45,-2.50
2024,01,13,20,46,-2.50
2024,01,13,20,47,-2.40
2024,01,13,20,48,-2.40
2024,01,13,20,49,-2.40
2024,01,13,20,50,-2.40
2024,01,13,20,51,-2.40
2024,01,13,20,52,-2.50
2024,01,13,20,53,-2.50
2024,01,13,20,54,-2.40
2024,01,13,20,55,-2.50
2024,01,13,20,56,-2.50
2024,01,13,20,57,-2.50
2024,01,13,20,58,-2.50
2024,01,13,20,59,-2.50
2024,01,13,21,00,-2.50
2024,01,13,21,01,-2.50
2024,01,13,21,02,-2.60
2024,01,13,21,03,-2.60
2024,01,13,21,04,-2.60
2024,01,13,21,05,-2.60
2024,01,13,21,06,-2.60
2024,01,13,21,07,-2.60
2024,01,13,21,08,-2.60
2024,01,13,21,09,-2.60
2024,01,13,21,10,-2.70
2024,01,13,21,11,-2.70
2024,01,13,21,12,-2.70
2024,01,13,21,13,-2.70
2024,01,13,21,14,-2.70
2024,01,13,21,15,-2.70
2024,01,13,21,16,-2.70
2024,01,13,21,17,-2.70
2024,01,13,21,18,-2.70
2024,01,13,21,19,-2.70
2024,01,13,21,20,-2.70
2024,01,13,21,21,-2.70
2024,01,13,21,22,-2.80
2024,01,13,21,23,-2.80
2024,01,13,21,24,-2.80
2024,01,13,21,25,-2.80
2024,01,13,21,26,-2.80
2024,01,13,21,27,-2.80
2024,01,13,21,28,-2.80
2024,01,13,21,29,-2.80
2024,01,13,21,30,-2.80
2024,01,13,21,31,-2.80
2024,01,13,21,32,-2.80
2024,01,13,21,33,-2.80